Time,TemperatureF,DewpointF,PressureIn,WindDirection,WindDirectionDegrees,WindSpeedMPH,WindSpeedGustMPH,Humidity,HourlyPrecipIn,Conditions,Clouds,dailyrainin,SoftwareType,DateUTC
2013-05-21 00:00:00,83.7,71.1,29.67,SSE,163,2.0,2.0,66,0.00,,,0.00,Wunderground v.1.15,2013-05-21 05:00:00,
2013-05-21 00:10:00,83.3,71.2,29.66,SSE,150,2.0,2.0,67,0.00,,,0.00,Wunderground v.1.15,2013-05-21 05:10:00,
2013-05-21 00:15:00,82.9,71.3,29.65,East,99,2.0,8.0,68,0.00,,,0.00,Wunderground v.1.15,2013-05-21 05:15:00,
2013-05-21 00:25:00,82.6,70.5,29.65,ESE,113,1.0,8.0,67,0.00,,,0.00,Wunderground v.1.15,2013-05-21 05:25:00,
2013-05-21 00:30:00,82.5,70.0,29.65,ESE,112,1.0,8.0,66,0.00,,,0.00,Wunderground v.1.15,2013-05-21 05:30:00,
2013-05-21 00:35:00,82.4,69.4,29.65,SE,132,1.0,8.0,65,0.00,,,0.00,Wunderground v.1.15,2013-05-21 05:35:00,
2013-05-21 00:45:00,82.3,68.9,29.65,South,169,1.0,8.0,64,0.00,,,0.00,Wunderground v.1.15,2013-05-21 05:45:00,
2013-05-21 00:55:00,82.4,69.4,29.67,SE,126,2.0,8.0,65,0.00,,,0.00,Wunderground v.1.15,2013-05-21 05:55:00,
2013-05-21 01:00:00,82.1,70.1,29.67,SSE,165,1.0,1.0,67,0.00,,,0.00,Wunderground v.1.15,2013-05-21 06:00:00,
2013-05-21 01:10:00,81.4,71.1,29.66,SE,134,2.0,2.0,71,0.00,,,0.00,Wunderground v.1.15,2013-05-21 06:10:00,
2013-05-21 01:15:00,80.9,71.0,29.66,SE,134,2.0,3.0,72,0.00,,,0.00,Wunderground v.1.15,2013-05-21 06:15:00,
2013-05-21 01:25:00,80.2,70.8,29.68,SSE,162,1.0,14.0,73,0.00,,,0.00,Wunderground v.1.15,2013-05-21 06:25:00,
2013-05-21 01:35:00,80.2,71.2,29.70,South,175,1.0,14.0,74,0.00,,,0.00,Wunderground v.1.15,2013-05-21 06:35:00,
2013-05-21 01:45:00,79.9,70.9,29.70,NW,317,0.0,11.0,74,0.00,,,0.00,Wunderground v.1.15,2013-05-21 06:45:00,
2013-05-21 01:55:00,79.6,70.2,29.70,SSW,201,1.0,14.0,73,0.00,,,0.00,Wunderground v.1.15,2013-05-21 06:55:00,
2013-05-21 02:00:00,79.7,70.3,29.71,SSW,202,0.0,0.0,73,0.00,,,0.00,Wunderground v.1.15,2013-05-21 07:00:00,
2013-05-21 02:10:00,79.4,70.0,29.71,SE,126,0.0,12.0,73,0.00,,,0.00,Wunderground v.1.15,2013-05-21 07:10:00,
2013-05-21 02:20:00,79.1,69.7,29.71,SSW,209,0.0,12.0,73,0.00,,,0.00,Wunderground v.1.15,2013-05-21 07:20:00,
2013-05-21 02:25:00,79.0,69.6,29.71,SW,228,1.0,12.0,73,0.00,,,0.00,Wunderground v.1.15,2013-05-21 07:25:00,
2013-05-21 02:35:00,78.9,69.5,29.71,South,169,0.0,12.0,73,0.00,,,0.00,Wunderground v.1.15,2013-05-21 07:35:00,
2013-05-21 02:50:00,78.4,69.4,29.71,East,81,0.0,12.0,74,0.00,,,0.00,Wunderground v.1.15,2013-05-21 07:50:00,
2013-05-21 03:00:00,78.2,69.6,29.71,West,264,1.0,1.0,75,0.00,,,0.00,Wunderground v.1.15,2013-05-21 08:00:00,
2013-05-21 03:15:00,77.8,69.6,29.71,SW,219,1.0,11.0,76,0.00,,,0.00,Wunderground v.1.15,2013-05-21 08:15:00,
2013-05-21 03:20:00,77.6,69.8,29.71,SSW,208,1.0,1.0,77,0.00,,,0.00,Wunderground v.1.15,2013-05-21 08:20:00,
2013-05-21 03:30:00,77.4,69.6,29.71,SSE,161,1.0,11.0,77,0.00,,,0.00,Wunderground v.1.15,2013-05-21 08:30:00,
2013-05-21 03:40:00,77.3,69.5,29.72,South,186,1.0,1.0,77,0.00,,,0.00,Wunderground v.1.15,2013-05-21 08:40:00,
2013-05-21 03:50:00,77.1,69.7,29.72,WSW,237,1.0,1.0,78,0.00,,,0.00,Wunderground v.1.15,2013-05-21 08:50:00,
2013-05-21 04:00:00,77.0,69.6,29.72,SE,140,1.0,1.0,78,0.00,,,0.00,Wunderground v.1.15,2013-05-21 09:00:00,
2013-05-21 04:10:00,77.3,69.9,29.72,NW,317,1.0,9.0,78,0.00,,,0.00,Wunderground v.1.15,2013-05-21 09:10:00,
2013-05-21 04:15:00,77.2,69.8,29.72,SE,140,2.0,9.0,78,0.00,,,0.00,Wunderground v.1.15,2013-05-21 09:15:00,
2013-05-21 04:25:00,77.1,70.1,29.72,SSW,206,2.0,4.0,79,0.00,,,0.00,Wunderground v.1.15,2013-05-21 09:25:00,
2013-05-21 04:35:00,77.0,70.0,29.72,SSW,204,2.0,9.0,79,0.00,,,0.00,Wunderground v.1.15,2013-05-21 09:35:00,
2013-05-21 04:40:00,77.0,70.0,29.73,WSW,242,2.0,2.0,79,0.00,,,0.00,Wunderground v.1.15,2013-05-21 09:40:00,
2013-05-21 04:50:00,77.1,70.1,29.73,East,100,1.0,9.0,79,0.00,,,0.00,Wunderground v.1.15,2013-05-21 09:50:00,
2013-05-21 05:00:00,76.9,70.3,29.73,South,171,1.0,1.0,80,0.00,,,0.00,Wunderground v.1.15,2013-05-21 10:00:00,
2013-05-21 05:10:00,76.7,70.1,29.73,South,180,1.0,15.0,80,0.00,,,0.00,Wunderground v.1.15,2013-05-21 10:10:00,
2013-05-21 05:15:00,76.7,70.4,29.73,ESE,115,1.0,15.0,81,0.00,,,0.00,Wunderground v.1.15,2013-05-21 10:15:00,
2013-05-21 05:25:00,76.8,70.5,29.74,East,95,1.0,15.0,81,0.00,,,0.00,Wunderground v.1.15,2013-05-21 10:25:00,
2013-05-21 05:35:00,76.7,70.4,29.73,South,189,1.0,15.0,81,0.00,,,0.00,Wunderground v.1.15,2013-05-21 10:35:00,
2013-05-21 05:45:00,76.6,70.3,29.74,SE,144,1.0,2.0,81,0.00,,,0.00,Wunderground v.1.15,2013-05-21 10:45:00,
2013-05-21 05:55:00,76.5,70.6,29.74,WSW,246,1.0,15.0,82,0.00,,,0.00,Wunderground v.1.15,2013-05-21 10:55:00,
2013-05-21 06:00:00,76.7,70.4,29.74,SSW,192,0.0,2.0,81,0.00,,,0.00,Wunderground v.1.15,2013-05-21 11:00:00,
2013-05-21 06:10:00,76.6,70.7,29.74,East,88,1.0,8.0,82,0.00,,,0.00,Wunderground v.1.15,2013-05-21 11:10:00,
2013-05-21 06:15:00,76.6,70.7,29.74,SW,221,1.0,8.0,82,0.00,,,0.00,Wunderground v.1.15,2013-05-21 11:15:00,
2013-05-21 06:25:00,76.5,70.6,29.74,SE,127,0.0,8.0,82,0.00,,,0.00,Wunderground v.1.15,2013-05-21 11:25:00,
2013-05-21 06:30:00,76.5,70.6,29.74,WSW,252,1.0,1.0,82,0.00,,,0.00,Wunderground v.1.15,2013-05-21 11:30:00,
2013-05-21 06:40:00,76.6,70.7,29.75,SE,132,0.0,8.0,82,0.00,,,0.00,Wunderground v.1.15,2013-05-21 11:40:00,
2013-05-21 06:50:00,76.6,70.7,29.75,SSW,213,0.0,8.0,82,0.00,,,0.00,Wunderground v.1.15,2013-05-21 11:50:00,
2013-05-21 07:00:00,76.5,70.9,29.75,West,260,0.0,0.0,83,0.00,,,0.00,Wunderground v.1.15,2013-05-21 12:00:00,
2013-05-21 07:10:00,76.4,70.9,29.75,SE,141,0.0,12.0,83,0.00,,,0.00,Wunderground v.1.15,2013-05-21 12:10:00,
2013-05-21 07:15:00,76.5,70.9,29.75,WSW,240,1.0,12.0,83,0.00,,,0.00,Wunderground v.1.15,2013-05-21 12:15:00,
2013-05-21 07:25:00,76.6,71.0,29.76,SSE,162,1.0,12.0,83,0.00,,,0.00,Wunderground v.1.15,2013-05-21 12:25:00,
2013-05-21 07:35:00,76.5,70.9,29.76,SW,217,0.0,12.0,83,0.00,,,0.00,Wunderground v.1.15,2013-05-21 12:35:00,
2013-05-21 07:40:00,76.5,70.9,29.76,SW,216,1.0,12.0,83,0.00,,,0.00,Wunderground v.1.15,2013-05-21 12:40:00,
2013-05-21 07:50:00,76.6,71.0,29.76,SE,142,1.0,12.0,83,0.00,,,0.00,Wunderground v.1.15,2013-05-21 12:50:00,
2013-05-21 08:00:00,76.9,71.0,29.75,SE,136,1.0,1.0,82,0.00,,,0.00,Wunderground v.1.15,2013-05-21 13:00:00,
2013-05-21 08:10:00,77.1,71.2,29.75,East,101,1.0,8.0,82,0.00,,,0.00,Wunderground v.1.15,2013-05-21 13:10:00,
2013-05-21 08:15:00,77.2,71.3,29.74,SSW,198,1.0,8.0,82,0.00,,,0.00,Wunderground v.1.15,2013-05-21 13:15:00,
2013-05-21 08:25:00,77.6,71.3,29.73,ESE,113,2.0,8.0,81,0.00,,,0.00,Wunderground v.1.15,2013-05-21 13:25:00,
2013-05-21 08:35:00,77.6,70.9,29.73,WSW,252,3.0,8.0,80,0.00,,,0.00,Wunderground v.1.15,2013-05-21 13:35:00,
2013-05-21 08:45:00,77.7,71.4,29.74,WSW,238,1.0,3.0,81,0.00,,,0.00,Wunderground v.1.15,2013-05-21 13:45:00,
2013-05-21 08:55:00,77.8,71.1,29.74,South,190,2.0,8.0,80,0.00,,,0.00,Wunderground v.1.15,2013-05-21 13:55:00,
2013-05-21 09:00:00,77.8,71.1,29.74,SSW,193,1.0,3.0,80,0.00,,,0.00,Wunderground v.1.15,2013-05-21 14:00:00,
2013-05-21 09:10:00,77.9,71.2,29.74,SSW,210,2.0,2.0,80,0.00,,,0.00,Wunderground v.1.15,2013-05-21 14:10:00,
2013-05-21 09:15:00,78.0,71.3,29.74,SSW,207,2.0,5.0,80,0.00,,,0.00,Wunderground v.1.15,2013-05-21 14:15:00,
2013-05-21 09:25:00,78.2,71.5,29.74,SSW,203,1.0,10.0,80,0.00,,,0.00,Wunderground v.1.15,2013-05-21 14:25:00,
2013-05-21 09:35:00,78.5,71.4,29.75,South,182,2.0,2.0,79,0.00,,,0.00,Wunderground v.1.15,2013-05-21 14:35:00,
2013-05-21 09:45:00,78.9,71.5,29.75,South,188,2.0,4.0,78,0.00,,,0.00,Wunderground v.1.15,2013-05-21 14:45:00,
2013-05-21 09:55:00,79.3,71.5,29.75,South,187,2.0,10.0,77,0.00,,,0.00,Wunderground v.1.15,2013-05-21 14:55:00,
2013-05-21 10:00:00,79.4,71.2,29.76,South,191,2.0,2.0,76,0.00,,,0.00,Wunderground v.1.15,2013-05-21 15:00:00,
2013-05-21 10:10:00,79.8,71.2,29.76,SSW,192,2.0,2.0,75,0.00,,,0.00,Wunderground v.1.15,2013-05-21 15:10:00,
2013-05-21 10:15:00,79.8,71.2,29.76,SSW,207,2.0,12.0,75,0.00,,,0.00,Wunderground v.1.15,2013-05-21 15:15:00,
2013-05-21 10:25:00,80.1,71.5,29.76,WSW,240,2.0,12.0,75,0.00,,,0.00,Wunderground v.1.15,2013-05-21 15:25:00,
2013-05-21 10:30:00,80.2,71.2,29.76,SSW,195,3.0,3.0,74,0.00,,,0.00,Wunderground v.1.15,2013-05-21 15:30:00,
2013-05-21 10:40:00,80.5,71.4,29.76,South,178,2.0,12.0,74,0.00,,,0.00,Wunderground v.1.15,2013-05-21 15:40:00,
2013-05-21 10:45:00,80.6,71.5,29.76,South,188,2.0,12.0,74,0.00,,,0.00,Wunderground v.1.15,2013-05-21 15:45:00,
2013-05-21 10:55:00,80.8,71.3,29.76,SSW,197,1.0,12.0,73,0.00,,,0.00,Wunderground v.1.15,2013-05-21 15:55:00,
2013-05-21 11:00:00,80.9,71.4,29.76,SSE,158,2.0,4.0,73,0.00,,,0.00,Wunderground v.1.15,2013-05-21 16:00:00,
2013-05-21 11:10:00,80.7,71.2,29.76,WSW,255,1.0,1.0,73,0.00,,,0.00,Wunderground v.1.15,2013-05-21 16:10:00,
2013-05-21 11:15:00,80.8,71.3,29.76,SE,132,1.0,12.0,73,0.00,,,0.00,Wunderground v.1.15,2013-05-21 16:15:00,
2013-05-21 11:25:00,81.3,71.4,29.75,SW,220,2.0,12.0,72,0.00,,,0.00,Wunderground v.1.15,2013-05-21 16:25:00,
2013-05-21 11:35:00,81.2,71.7,29.75,South,169,1.0,12.0,73,0.00,,,0.00,Wunderground v.1.15,2013-05-21 16:35:00,
2013-05-21 11:45:00,81.2,70.9,29.74,SSW,196,1.0,12.0,71,0.00,,,0.00,Wunderground v.1.15,2013-05-21 16:45:00,
2013-05-21 11:55:00,81.5,71.2,29.74,WSW,254,1.0,5.0,71,0.00,,,0.00,Wunderground v.1.15,2013-05-21 16:55:00,
2013-05-21 12:00:00,81.4,71.1,29.75,SW,215,1.0,1.0,71,0.00,,,0.00,Wunderground v.1.15,2013-05-21 17:00:00,
2013-05-21 12:10:00,81.3,71.0,29.74,SE,138,2.0,11.0,71,0.00,,,0.00,Wunderground v.1.15,2013-05-21 17:10:00,
2013-05-21 12:20:00,81.5,71.2,29.74,WSW,244,1.0,11.0,71,0.00,,,0.00,Wunderground v.1.15,2013-05-21 17:20:00,
2013-05-21 12:30:00,81.5,71.2,29.73,SSW,210,2.0,11.0,71,0.00,,,0.00,Wunderground v.1.15,2013-05-21 17:30:00,
2013-05-21 12:40:00,81.5,71.2,29.73,South,182,2.0,4.0,71,0.00,,,0.00,Wunderground v.1.15,2013-05-21 17:40:00,
2013-05-21 12:50:00,81.5,71.2,29.72,ESE,108,1.0,11.0,71,0.00,,,0.00,Wunderground v.1.15,2013-05-21 17:50:00,
2013-05-21 13:00:00,81.4,71.5,29.72,SW,221,1.0,1.0,72,0.00,,,0.00,Wunderground v.1.15,2013-05-21 18:00:00,
2013-05-21 13:10:00,81.4,71.5,29.71,South,178,1.0,1.0,72,0.00,,,0.00,Wunderground v.1.15,2013-05-21 18:10:00,
2013-05-21 13:20:00,81.5,71.6,29.71,SSW,209,0.0,10.0,72,0.00,,,0.00,Wunderground v.1.15,2013-05-21 18:20:00,
2013-05-21 13:30:00,81.4,71.5,29.71,South,188,0.0,10.0,72,0.00,,,0.00,Wunderground v.1.15,2013-05-21 18:30:00,
2013-05-21 13:40:00,81.4,71.5,29.70,WSW,242,0.0,10.0,72,0.00,,,0.00,Wunderground v.1.15,2013-05-21 18:40:00,
2013-05-21 13:50:00,81.3,71.0,29.70,South,190,1.0,10.0,71,0.00,,,0.00,Wunderground v.1.15,2013-05-21 18:50:00,
2013-05-21 14:00:00,81.6,71.3,29.69,South,190,1.0,1.0,71,0.00,,,0.00,Wunderground v.1.15,2013-05-21 19:00:00,
2013-05-21 14:10:00,81.5,71.6,29.69,SW,224,0.0,10.0,72,0.00,,,0.00,Wunderground v.1.15,2013-05-21 19:10:00,
2013-05-21 14:20:00,81.1,69.1,29.74,NW,306,1.0,10.0,67,0.00,,,0.00,Wunderground v.1.15,2013-05-21 19:20:00,
2013-05-21 14:30:00,71.1,63.9,29.73,WSW,251,5.0,10.0,78,0.59,,,0.11,Wunderground v.1.15,2013-05-21 19:30:00,
2013-05-21 14:40:00,66.8,62.5,29.73,NW,307,3.0,3.0,86,0.41,,,0.15,Wunderground v.1.15,2013-05-21 19:40:00,
2013-05-21 14:50:00,64.8,61.5,29.74,West,273,3.0,10.0,89,0.55,,,0.24,Wunderground v.1.15,2013-05-21 19:50:00,
2013-05-21 15:00:00,63.6,60.9,29.74,NNW,327,3.0,5.0,91,2.36,,,0.46,Wunderground v.1.15,2013-05-21 20:00:00,
2013-05-21 15:10:00,62.9,60.5,29.74,NW,319,2.0,2.0,92,0.57,,,0.67,Wunderground v.1.15,2013-05-21 20:10:00,
2013-05-21 15:25:00,62.6,60.8,29.72,NNE,16,1.0,18.0,94,0.04,,,0.68,Wunderground v.1.15,2013-05-21 20:25:00,
2013-05-21 15:30:00,62.4,60.3,29.74,NW,308,1.0,1.0,93,0.00,,,0.68,Wunderground v.1.15,2013-05-21 20:30:00,
2013-05-21 15:40:00,62.2,60.5,29.73,WSW,240,1.0,1.0,94,0.00,,,0.68,Wunderground v.1.15,2013-05-21 20:40:00,
2013-05-21 15:50:00,62.1,60.4,29.73,WNW,294,0.0,18.0,94,0.00,,,0.68,Wunderground v.1.15,2013-05-21 20:50:00,
2013-05-21 16:00:00,61.9,60.2,29.73,WNW,303,2.0,2.0,94,0.00,,,0.68,Wunderground v.1.15,2013-05-21 21:00:00,
2013-05-21 16:10:00,62.0,60.3,29.78,NW,320,0.0,11.0,94,0.00,,,0.68,Wunderground v.1.15,2013-05-21 21:10:00,
2013-05-21 16:20:00,62.0,60.3,29.77,NW,307,2.0,2.0,94,0.00,,,0.68,Wunderground v.1.15,2013-05-21 21:20:00,
2013-05-21 16:25:00,61.9,60.2,29.76,WNW,297,2.0,11.0,94,0.00,,,0.68,Wunderground v.1.15,2013-05-21 21:25:00,
2013-05-21 16:30:00,61.9,60.2,29.76,NW,312,1.0,1.0,94,0.00,,,0.68,Wunderground v.1.15,2013-05-21 21:30:00,
2013-05-21 16:40:00,61.6,59.9,29.75,WNW,292,1.0,1.0,94,0.00,,,0.68,Wunderground v.1.15,2013-05-21 21:40:00,
2013-05-21 16:45:00,61.5,59.8,29.75,WNW,300,1.0,4.0,94,0.00,,,0.68,Wunderground v.1.15,2013-05-21 21:45:00,
2013-05-21 16:55:00,61.4,59.7,29.78,West,267,1.0,11.0,94,0.00,,,0.68,Wunderground v.1.15,2013-05-21 21:55:00,
2013-05-21 17:00:00,61.3,59.6,29.79,WNW,293,1.0,1.0,94,0.00,,,0.68,Wunderground v.1.15,2013-05-21 22:00:00,
2013-05-21 17:10:00,61.4,59.7,29.78,WNW,299,1.0,1.0,94,0.00,,,0.68,Wunderground v.1.15,2013-05-21 22:10:00,
2013-05-21 17:20:00,61.5,59.8,29.79,NW,306,1.0,1.0,94,0.00,,,0.68,Wunderground v.1.15,2013-05-21 22:20:00,
2013-05-21 17:30:00,61.6,59.6,29.79,NW,315,1.0,1.0,93,0.00,,,0.68,Wunderground v.1.15,2013-05-21 22:30:00,
2013-05-21 17:40:00,61.9,59.9,29.79,NW,309,1.0,10.0,93,0.00,,,0.68,Wunderground v.1.15,2013-05-21 22:40:00,
2013-05-21 17:45:00,61.9,59.9,29.79,West,261,1.0,10.0,93,0.00,,,0.68,Wunderground v.1.15,2013-05-21 22:45:00,
2013-05-21 17:55:00,61.8,59.8,29.79,West,269,1.0,10.0,93,0.00,,,0.68,Wunderground v.1.15,2013-05-21 22:55:00,
2013-05-21 18:01:00,61.7,59.7,29.79,ENE,59,0.0,8.0,93,0.00,,,0.68,Wunderground v.1.15,2013-05-21 23:01:00,
2013-05-21 18:10:00,61.7,59.4,29.78,NW,313,1.0,8.0,92,0.00,,,0.68,Wunderground v.1.15,2013-05-21 23:10:00,
2013-05-21 18:20:00,61.8,59.5,29.77,NW,313,2.0,8.0,92,0.00,,,0.68,Wunderground v.1.15,2013-05-21 23:20:00,
2013-05-21 18:30:00,62.3,59.9,29.78,WNW,301,1.0,8.0,92,0.00,,,0.68,Wunderground v.1.15,2013-05-21 23:30:00,
2013-05-21 18:40:00,63.1,60.7,29.79,NW,309,0.0,8.0,92,0.00,,,0.68,Wunderground v.1.15,2013-05-21 23:40:00,
2013-05-21 18:50:00,63.2,60.5,29.78,WNW,283,0.0,8.0,91,0.00,,,0.68,Wunderground v.1.15,2013-05-21 23:50:00,
2013-05-21 19:00:00,63.3,60.3,29.79,SSW,194,0.0,0.0,90,0.00,,,0.68,Wunderground v.1.15,2013-05-22 00:00:00,
2013-05-21 19:10:00,63.3,60.3,29.79,West,278,0.0,9.0,90,0.00,,,0.68,Wunderground v.1.15,2013-05-22 00:10:00,
2013-05-21 19:20:00,63.3,60.3,29.79,West,271,0.0,9.0,90,0.00,,,0.68,Wunderground v.1.15,2013-05-22 00:20:00,
2013-05-21 19:30:00,63.3,60.6,29.79,West,271,0.0,9.0,91,0.00,,,0.68,Wunderground v.1.15,2013-05-22 00:30:00,
2013-05-21 19:40:00,63.3,60.9,29.80,WNW,290,0.0,9.0,92,0.00,,,0.68,Wunderground v.1.15,2013-05-22 00:40:00,
2013-05-21 19:50:00,63.4,60.4,29.80,WNW,299,0.0,9.0,90,0.00,,,0.68,Wunderground v.1.15,2013-05-22 00:50:00,
2013-05-21 20:01:00,63.6,60.9,29.81,WNW,297,0.0,6.0,91,0.00,,,0.68,Wunderground v.1.15,2013-05-22 01:01:00,
2013-05-21 20:10:00,64.0,60.7,29.82,WSW,247,0.0,6.0,89,0.00,,,0.68,Wunderground v.1.15,2013-05-22 01:10:00,
2013-05-21 20:20:00,63.9,60.9,29.82,WSW,247,0.0,6.0,90,0.00,,,0.68,Wunderground v.1.15,2013-05-22 01:20:00,
2013-05-21 20:30:00,63.8,60.8,29.82,WSW,247,0.0,6.0,90,0.00,,,0.68,Wunderground v.1.15,2013-05-22 01:30:00,
2013-05-21 20:40:00,63.7,60.7,29.83,WSW,247,0.0,6.0,90,0.00,,,0.68,Wunderground v.1.15,2013-05-22 01:40:00,
2013-05-21 20:50:00,63.6,60.6,29.84,WNW,295,0.0,6.0,90,0.00,,,0.68,Wunderground v.1.15,2013-05-22 01:50:00,
2013-05-21 21:00:00,63.7,60.4,29.84,WNW,296,0.0,0.0,89,0.00,,,0.68,Wunderground v.1.15,2013-05-22 02:00:00,
2013-05-21 21:10:00,63.7,60.4,29.84,WNW,290,0.0,5.0,89,0.00,,,0.68,Wunderground v.1.15,2013-05-22 02:10:00,
2013-05-21 21:20:00,63.8,60.5,29.84,WNW,290,0.0,5.0,89,0.00,,,0.68,Wunderground v.1.15,2013-05-22 02:20:00,
2013-05-21 21:30:00,64.1,60.5,29.84,NW,304,1.0,1.0,88,0.00,,,0.68,Wunderground v.1.15,2013-05-22 02:30:00,
2013-05-21 21:40:00,64.0,60.4,29.84,WNW,291,0.0,5.0,88,0.00,,,0.68,Wunderground v.1.15,2013-05-22 02:40:00,
2013-05-21 21:50:00,64.1,60.5,29.84,NW,317,1.0,1.0,88,0.00,,,0.68,Wunderground v.1.15,2013-05-22 02:50:00,
2013-05-21 22:00:00,64.1,60.5,29.85,WNW,284,1.0,1.0,88,0.00,,,0.68,Wunderground v.1.15,2013-05-22 03:00:00,
2013-05-21 22:10:00,64.0,60.4,29.85,WNW,284,0.0,5.0,88,0.00,,,0.68,Wunderground v.1.15,2013-05-22 03:10:00,
2013-05-21 22:20:00,64.0,60.4,29.86,NW,315,0.0,5.0,88,0.00,,,0.68,Wunderground v.1.15,2013-05-22 03:20:00,
2013-05-21 22:30:00,63.9,60.3,29.86,NW,314,0.0,5.0,88,0.00,,,0.68,Wunderground v.1.15,2013-05-22 03:30:00,
2013-05-21 22:35:00,63.9,60.3,29.86,NW,314,0.0,5.0,88,0.00,,,0.68,Wunderground v.1.15,2013-05-22 03:35:00,
2013-05-21 22:45:00,64.2,60.6,29.86,WNW,300,0.0,5.0,88,0.00,,,0.68,Wunderground v.1.15,2013-05-22 03:45:00,
2013-05-21 22:50:00,64.0,59.7,29.86,NW,309,0.0,5.0,86,0.00,,,0.68,Wunderground v.1.15,2013-05-22 03:50:00,
2013-05-21 23:00:00,63.5,59.6,29.86,NW,309,0.0,0.0,87,0.00,,,0.68,Wunderground v.1.15,2013-05-22 04:00:00,
2013-05-21 23:05:00,63.3,59.4,29.86,NW,309,0.0,7.0,87,0.00,,,0.68,Wunderground v.1.15,2013-05-22 04:05:00,
2013-05-21 23:10:00,63.1,59.5,29.86,NW,309,0.0,7.0,88,0.00,,,0.68,Wunderground v.1.15,2013-05-22 04:10:00,
2013-05-21 23:15:00,62.9,59.3,29.86,WNW,286,0.0,7.0,88,0.00,,,0.68,Wunderground v.1.15,2013-05-22 04:15:00,
2013-05-21 23:25:00,62.6,59.0,29.86,WNW,286,0.0,7.0,88,0.00,,,0.68,Wunderground v.1.15,2013-05-22 04:25:00,
2013-05-21 23:30:00,62.4,59.1,29.86,WNW,286,0.0,7.0,89,0.00,,,0.68,Wunderground v.1.15,2013-05-22 04:30:00,
2013-05-21 23:35:00,62.2,58.9,29.87,WNW,286,0.0,7.0,89,0.00,,,0.68,Wunderground v.1.15,2013-05-22 04:35:00,
2013-05-21 23:45:00,61.7,58.7,29.87,WNW,286,0.0,7.0,90,0.00,,,0.68,Wunderground v.1.15,2013-05-22 04:45:00,
2013-05-21 23:55:00,61.3,58.3,29.88,WNW,286,0.0,7.0,90,0.00,,,0.68,Wunderground v.1.15,2013-05-22 04:55:00,